Weather History for Palestine, TX

Change the Weather History Date:

Sunday, April 7, 2013

  Actual Average (KTYR) Record (KTYR)
Temperature  
Mean Temperature 66 °F 62 °F  
Max Temperature 74 °F 72 °F 91 °F (1948)
Min Temperature 57 °F 52 °F 31 °F (2009)
Degree Days  
Heating Degree Days 0 5  
Month to date heating degree days 38  
Since 1 July heating degree days 2203  
Cooling Degree Days 0 2  
Month to date cooling degree days 9  
Year to date cooling degree days 42  
Growing Degree Days 16 (Base 50)    
Moisture  
Dew Point 57 °F    
Average Humidity 74    
Maximum Humidity 93    
Minimum Humidity 58    
Precipitation  
Precipitation 0.00 in 0.10 in 2.55 in (1942)
Month to date precipitation 0.71  
Year to date precipitation 11.70  
Snow  
Snow 0.00 in - - ()
Month to date snowfall  
Since 1 July snowfall  
Snow Depth -    
Sea Level Pressure  
Sea Level Pressure 29.92 in    
Wind  
Wind Speed 8 mph (SSE)    
Max Wind Speed 16 mph    
Max Gust Speed 22 mph    
Visibility 10 miles    
Events      
T = Trace of Precipitation, MM = Missing Value Source: NWS Daily Summary

Daily Weather History Graph

Daily Weather History Graph

Search for Another Location

Airport:

Trip Planner

Search our weather history database for the weather conditions in past years. The results will help you decide how hot, cold, wet, or windy it might be!

Date:

Astronomy

Apr. 07, 2013 Rise Set
Actual Time 7:03 AM CDT 7:46 PM CDT
Civil Twilight 6:38 AM CDT 8:11 PM CDT
Nautical Twilight 6:09 AM CDT 8:40 PM CDT
Astronomical Twilight 5:39 AM CDT 9:10 PM CDT
Moon 5:12 AM CDT (4/7) 5:27 PM CDT (4/7)
Length of Visible Light 13h 32m
Length of Day
12h 43m
Waning Crescent, 8% of the Moon is Illuminated
Apr 7
Waning Crescent
Apr 10
New
Apr 18
First Quarter
Apr 25
Full
May 2
Last Quarter

Hourly Weather History & Observations

Time (CDT) Temp. Dew Point Humidity Pressure Visibility Wind Dir Wind Speed Gust Speed Precip Events Conditions
12:15 AM 62.6 °F 55.8 °F 78% 29.96 in 10.0 mi SE 9.2 mph 17.3 mph N/A   Clear
12:35 AM 62.2 °F 55.8 °F 79% 29.97 in 10.0 mi SSE 9.2 mph - N/A   Clear
12:55 AM 61.9 °F 55.8 °F 80% 29.97 in 10.0 mi SSE 8.1 mph - N/A   Clear
1:15 AM 61.3 °F 55.6 °F 81% 29.97 in 10.0 mi SSE 5.8 mph - N/A   Clear
1:35 AM 60.8 °F 55.8 °F 83% 29.97 in 10.0 mi SE 8.1 mph - N/A   Clear
1:55 AM 60.3 °F 55.6 °F 85% 29.96 in 10.0 mi SE 9.2 mph - N/A   Clear
2:15 AM 59.9 °F 55.6 °F 86% 29.96 in 10.0 mi SSE 6.9 mph - N/A   Clear
2:35 AM 59.4 °F 55.6 °F 87% 29.95 in 10.0 mi SSE 6.9 mph - N/A   Clear
2:55 AM 59.2 °F 55.8 °F 88% 29.95 in 10.0 mi SSE 6.9 mph - N/A   Clear
3:15 AM 58.8 °F 55.8 °F 90% 29.95 in 10.0 mi SE 6.9 mph - N/A   Scattered Clouds
3:35 AM 58.3 °F 55.6 °F 91% 29.95 in 10.0 mi SE 4.6 mph - N/A   Scattered Clouds
3:55 AM 57.7 °F 55.4 °F 92% 29.94 in 10.0 mi SE 5.8 mph - N/A   Scattered Clouds
4:15 AM 58.1 °F 55.8 °F 92% 29.95 in 10.0 mi SE 5.8 mph - N/A   Mostly Cloudy
4:35 AM 58.1 °F 55.8 °F 92% 29.95 in 10.0 mi SSE 5.8 mph - N/A   Overcast
4:55 AM 58.1 °F 55.8 °F 92% 29.95 in 10.0 mi SE 6.9 mph - N/A   Overcast
5:15 AM 58.1 °F 55.8 °F 92% 29.95 in 10.0 mi SSE 5.8 mph - N/A   Overcast
5:35 AM 58.1 °F 55.9 °F 93% 29.95 in 10.0 mi SE 4.6 mph - N/A   Overcast
5:55 AM 58.1 °F 56.1 °F 93% 29.96 in 10.0 mi SSE 4.6 mph - N/A   Overcast
6:15 AM 58.3 °F 56.3 °F 93% 29.96 in 10.0 mi SSE 3.5 mph - N/A   Overcast
6:35 AM 58.5 °F 56.1 °F 92% 29.96 in 10.0 mi ESE 5.8 mph - N/A   Overcast
6:55 AM 58.6 °F 56.1 °F 91% 29.97 in 10.0 mi SE 4.6 mph - N/A   Overcast
7:15 AM 59.0 °F 56.3 °F 91% 29.97 in 10.0 mi SE 5.8 mph - N/A   Overcast
7:35 AM 59.0 °F 56.3 °F 91% 29.98 in 10.0 mi SE 6.9 mph - N/A   Overcast
7:55 AM 59.5 °F 56.5 °F 90% 29.98 in 10.0 mi SE 8.1 mph - N/A   Overcast
8:15 AM 60.3 °F 56.5 °F 87% 29.98 in 10.0 mi SE 6.9 mph - N/A   Overcast
8:35 AM 60.8 °F 56.7 °F 86% 29.98 in 10.0 mi SE 6.9 mph - N/A   Overcast
8:55 AM 61.7 °F 56.7 °F 84% 29.98 in 10.0 mi SE 5.8 mph - N/A   Overcast
9:15 AM 62.6 °F 56.8 °F 81% 29.99 in 10.0 mi SSE 5.8 mph - N/A   Overcast
9:35 AM 63.9 °F 57.2 °F 79% 29.99 in 10.0 mi SSE 6.9 mph - N/A   Overcast
9:55 AM 64.8 °F 57.2 °F 76% 29.98 in 7.0 mi SSE 5.8 mph - N/A   Overcast
10:15 AM 66.2 °F 57.7 °F 74% 29.98 in 10.0 mi SSE 9.2 mph - N/A   Overcast
10:35 AM 67.3 °F 57.9 °F 72% 29.99 in 10.0 mi South 9.2 mph - N/A   Overcast
10:55 AM 67.6 °F 57.9 °F 71% 29.99 in 10.0 mi South 11.5 mph 17.3 mph N/A   Overcast
11:15 AM 68.2 °F 57.9 °F 70% 29.99 in 10.0 mi South 9.2 mph 21.9 mph N/A   Overcast
11:35 AM 68.9 °F 57.7 °F 68% 29.99 in 1.8 mi South 15.0 mph 19.6 mph N/A   Haze
11:55 AM 68.4 °F 57.9 °F 69% 29.99 in 10.0 mi South 10.4 mph 20.7 mph N/A   Overcast
12:15 PM 69.4 °F 58.1 °F 67% 29.98 in 10.0 mi South 9.2 mph 19.6 mph N/A   Overcast
12:35 PM 70.3 °F 58.1 °F 65% 29.97 in 10.0 mi South 10.4 mph 17.3 mph N/A   Overcast
12:55 PM 70.2 °F 58.1 °F 65% 29.96 in 10.0 mi South 11.5 mph 19.6 mph N/A   Overcast
1:15 PM 71.4 °F 58.1 °F 63% 29.95 in 10.0 mi SSE 11.5 mph 16.1 mph N/A   Overcast
1:35 PM 70.7 °F 58.3 °F 65% 29.94 in 10.0 mi South 9.2 mph 16.1 mph N/A   Overcast
1:55 PM 71.1 °F 58.1 °F 63% 29.93 in 10.0 mi South 5.8 mph 9.2 mph N/A   Overcast
2:15 PM 71.2 °F 58.3 °F 64% 29.92 in 10.0 mi South 12.7 mph 19.6 mph N/A   Overcast
2:35 PM 72.5 °F 58.3 °F 61% 29.90 in 7.0 mi SSE 9.2 mph 16.1 mph N/A   Overcast
2:55 PM 72.3 °F 58.8 °F 62% 29.90 in 7.0 mi SE 11.5 mph 17.3 mph N/A   Overcast
3:15 PM 72.7 °F 58.8 °F 62% 29.90 in 10.0 mi SSE 13.8 mph 18.4 mph N/A   Overcast
3:35 PM 73.4 °F 58.6 °F 60% 29.89 in 10.0 mi South 8.1 mph 16.1 mph N/A   Overcast
3:55 PM 73.6 °F 59.0 °F 60% 29.88 in 10.0 mi SSE 9.2 mph 17.3 mph N/A   Overcast
4:15 PM 73.6 °F 59.2 °F 61% 29.87 in 10.0 mi SSE 9.2 mph - N/A   Overcast
4:35 PM 73.2 °F 59.2 °F 61% 29.86 in 10.0 mi SE 10.4 mph 17.3 mph N/A   Overcast
4:55 PM 74.3 °F 59.2 °F 59% 29.85 in 7.0 mi SSE 15.0 mph 20.7 mph N/A   Overcast
5:15 PM 73.9 °F 59.0 °F 59% 29.85 in 10.0 mi SE 12.7 mph 19.6 mph N/A   Mostly Cloudy
5:35 PM 74.7 °F 59.5 °F 59% 29.84 in 10.0 mi SE 16.1 mph 21.9 mph N/A   Mostly Cloudy
5:55 PM 74.7 °F 59.2 °F 58% 29.83 in 7.0 mi SSE 10.4 mph 16.1 mph N/A   Overcast
6:15 PM 73.4 °F 59.0 °F 61% 29.83 in 10.0 mi SSE 10.4 mph 17.3 mph N/A   Overcast
6:35 PM 73.4 °F 59.0 °F 61% 29.84 in 10.0 mi SSE 9.2 mph - N/A   Overcast
6:55 PM 72.7 °F 59.0 °F 62% 29.84 in 10.0 mi SE 8.1 mph - N/A   Overcast
7:15 PM 72.5 °F 58.6 °F 62% 29.84 in 10.0 mi SE 8.1 mph - N/A   Overcast
7:35 PM 72.1 °F 58.6 °F 62% 29.83 in 10.0 mi SE 10.4 mph 17.3 mph N/A   Overcast
7:55 PM 71.8 °F 58.5 °F 63% 29.83 in 10.0 mi SE 6.9 mph - N/A   Overcast
8:15 PM 71.6 °F 58.3 °F 63% 29.84 in 10.0 mi SE 9.2 mph - N/A   Overcast
8:35 PM 71.6 °F 58.1 °F 62% 29.84 in 4.0 mi SSE 9.2 mph - N/A   Haze
8:55 PM 71.2 °F 58.3 °F 64% 29.85 in 10.0 mi SSE 11.5 mph 18.4 mph N/A   Overcast
9:15 PM 70.9 °F 58.1 °F 64% 29.86 in 10.0 mi SSE 9.2 mph 17.3 mph N/A   Overcast
9:35 PM 70.7 °F 58.1 °F 64% 29.86 in 7.0 mi SSE 10.4 mph 18.4 mph N/A   Overcast
9:55 PM 70.3 °F 58.3 °F 66% 29.88 in 10.0 mi SSE 10.4 mph - N/A   Overcast
10:15 PM 70.0 °F 58.1 °F 66% 29.88 in 7.0 mi SSE 11.5 mph 18.4 mph N/A   Overcast
10:35 PM 69.8 °F 58.1 °F 66% 29.88 in 10.0 mi SSE 11.5 mph 16.1 mph N/A   Overcast
10:55 PM 69.3 °F 58.1 °F 68% 29.88 in 10.0 mi SE 11.5 mph 17.3 mph N/A   Overcast
11:15 PM 68.5 °F 58.1 °F 69% 29.89 in 7.0 mi SSE 11.5 mph 19.6 mph N/A   Overcast
11:35 PM 67.8 °F 58.3 °F 71% 29.88 in 10.0 mi SE 10.4 mph 18.4 mph N/A   Overcast
11:55 PM 67.3 °F 58.1 °F 72% 29.87 in 10.0 mi SSE 12.7 mph 19.6 mph N/A   Overcast